User: anonymous   Login
Location: Unspecified
(0.0000°N, 0.0000°E)
Time: 23:40:08
(UTC+00:00)
Language:

USA 148 - Orbit

View from above orbital plane
View from above orbital plane
View from above satellite
View from above satellite

Ground track
Ground track

The orbit data is extracted from the following two-line orbital elements,

1 26052U 00001A   17327.47052135 0.00000000  00000-0  00000-0 0    06
2 26052   6.9641  52.0955 0007667  15.7494 344.2995  1.00270000    01
Epoch (UTC): 23 November 2017 11:17:33
Eccentricity: 0.0007667
inclination: 6.9641°
perigee height: 35754 km
apogee height: 35819 km
right ascension of ascending node: 52.0955°
argument of perigee: 15.7494°
revolutions per day: 1.00270000
mean anomaly at epoch: 344.2995°
orbit number at epoch: 0

The dashed part of the orbit path shows where the satellite is in the earth's shadow,  

DLR